niloblog.com alexa rank chart, niloblog.com alexa rank daily changes

niloblog.com alexa rank chart, niloblog.com alexa rank daily changes

niloblog.com
Actual rank:
64 974

RANK HISTORY

Date Rank Diff
2017/10/24 64 974 +406
2017/10/23 64 568 -1 010
2017/10/22 65 578 -697
2017/10/21 66 275 -1 802
2017/10/20 68 077 -2 046
2017/10/19 70 123 -387
2017/10/18 70 510 -450
2017/10/17 70 960 -2 190
2017/10/16 73 150 -6 071
2017/10/14 79 221 -1 164
2017/10/13 80 385 -3 510
2017/10/12 83 895 -6 158
2017/10/11 90 053 -544
2017/10/10 90 597 +30
2017/10/09 90 567 -1 079
2017/10/07 91 646 -2 110
2017/10/06 93 756 +1 010
2017/10/05 92 746 +3 299
2017/10/04 89 447 -1 838
2017/10/03 91 285 -446
2017/10/02 91 731 +6 289
2017/09/30 85 442 +1 996
2017/09/29 83 446 +613
2017/09/28 82 833 +3 366
2017/09/26 79 467 -364
2017/09/25 79 831 +417
2017/09/24 79 414 -285
2017/09/23 79 699 +1 287
2017/09/22 78 412 +2 392
2017/09/20 76 020 +751
2017/09/19 75 269 +2 721
2017/09/18 72 548 +1 151
2017/09/17 71 397 +108
2017/09/16 71 289 -374
2017/09/15 71 663 +519
2017/09/14 71 144 -681
2017/09/13 71 825 -704
2017/09/12 72 529 -125
2017/09/11 72 654 -141
2017/09/10 72 795 -841
2017/09/09 73 636 -696
2017/09/08 74 332 -115
2017/09/07 74 447 +561
2017/09/06 73 886 +765
2017/09/05 73 121 -13
2017/09/04 73 134 +1 359
2017/09/03 71 775 -740
2017/09/02 72 515 -3 771
2017/09/01 76 286 -1 744
2017/08/31 78 030 -951
2017/08/29 78 981 -564
2017/08/28 79 545 -1 453
2017/08/27 80 998 -24
2017/08/26 81 022 +131
2017/08/25 80 891

WIDGET FOR YOUR SITE

DOMAINS WITH THE NEAREST RANK

Domain Rank
mof.go.jp 64 969
bankir.ru 64 970
links.hr 64 971
youngcons.com 64 972
polarr.co 64 973
niloblog.com 64 974
toddsnyder.com 64 975
t7k.space 64 976
arabi-online.net 64 977
princecoin.org 64 978
21frames.in 64 979

DOMAINS WITH THE NEAREST RANK BY TLD .com

Domain Rank
completesportsnigeria.com 64 962
carrefoursa.com 64 963
darkcategories.com 64 965
csgobig.com 64 966
youngcons.com 64 972
niloblog.com 64 974
toddsnyder.com 64 975
icezmz.com 64 980
helperchoice.com 64 981
sobytiyavmire.com 64 985
awwapp.com 64 987